Flag for Germany Weather past 2 weeks in Bitterfeld-Wolfen, Saxony-Anhalt, Germany

Now
54 °F

Partly sunny.


Feels Like: 52 °F
Forecast: 51 / 67 °F
Wind: 7 mph from Northeast

Location: Leipzig-Schkeuditz

Current Time: May 24, 2015 at 8:05:39 AM

Latest Report: May 24, 2015 at 7:20 AM


Visibility: N/A

Pressure: 30.12 "Hg

Humidity: 82%

Dew point: 48 °F

Location of Bitterfeld-WolfenLocation

Historic Weather in Bitterfeld-Wolfen — Graph

°F

Bitterfeld-Wolfen temperature yesterday

Maximum temperature yesterday: 70 °F (at 3:50 PM)
Minimum temperature yesterday: 54 °F (at 12:20 AM)
Average temperature yesterday: 60 °F

Past Weeks' High & Low Weather Summary

 TemperatureHumidityPressure
High82 °F (May 12, 3:20 PM)100% (May 15, 5:50 AM)30.36 "Hg (May 15, 5:50 AM)
Low39 °F (May 15, 4:50 AM)25% (May 12, 3:50 PM)29.62 "Hg (May 19, 1:50 AM)
Average56 °F63%30.06 "Hg
* Reported May 9 6:20 AM — May 24 6:50 AM, Bitterfeld-Wolfen, Weather by CustomWeather, © 2015

Note: Actual official high and low records may vary slightly from our data, if they occured in-between our weather recording intervals... More about our weather records

Advertising

Bitterfeld-Wolfen weather history for previous 24 hours

 ConditionsComfort  
Time TempWeatherWind HumidityBarometerVisibility
6:50 AM
Sun, May 24
52 °FPartly sunny.6 mph82%30.12 "HgN/A
6:20 AM52 °FOvercast.9 mph82%30.12 "HgN/A
5:50 AM52 °FOvercast.6 mph88%30.12 "HgN/A
5:20 AM52 °FOvercast.7 mph88%30.12 "HgN/A
4:50 AM52 °FPassing clouds.5 mph88%30.12 "HgN/A
4:20 AM52 °FPassing clouds.6 mph88%30.12 "HgN/A
3:50 AM52 °FPassing clouds.5 mph88%30.12 "HgN/A
3:20 AM52 °FClear.5 mph88%30.12 "Hg10 mi
2:50 AM52 °FClear.6 mph88%30.12 "Hg10 mi
2:20 AM54 °FClear.6 mph82%30.09 "Hg10 mi
1:50 AM54 °FClear.6 mph88%30.12 "Hg10 mi
1:20 AM54 °FClear.8 mph88%30.12 "Hg10 mi
12:50 AM54 °FPartly cloudy.8 mph88%30.12 "HgN/A
12:20 AM55 °FPartly cloudy.8 mph82%30.12 "HgN/A
11:50 PM
Sat, May 23
55 °FPartly cloudy.8 mph82%30.12 "HgN/A
11:20 PM55 °FClear.10 mph82%30.09 "Hg10 mi
10:50 PM55 °FClear.12 mph82%30.09 "Hg10 mi
10:20 PM57 °FPassing clouds.10 mph77%30.09 "HgN/A
9:50 PM59 °FPartly sunny.10 mph77%30.09 "HgN/A
9:20 PM59 °FMostly cloudy.13 mph77%30.09 "HgN/A
8:50 PM61 °FMostly cloudy.15 mph72%30.07 "HgN/A
8:20 PM63 °FPartly sunny.12 mph68%30.07 "HgN/A
7:50 PM63 °FBroken clouds.10 mph64%30.07 "HgN/A
7:20 PM64 °FBroken clouds.12 mph56%30.07 "HgN/A
6:50 PM64 °FPartly sunny.5 mph60%30.07 "HgN/A
6:20 PM64 °FPartly sunny.7 mph56%30.07 "HgN/A
5:50 PM64 °FPartly sunny.9 mph56%30.07 "HgN/A
5:20 PM66 °FPartly sunny.12 mph49%30.07 "HgN/A
4:50 PM66 °FPartly sunny.8 mph52%30.07 "HgN/A
4:20 PM66 °FPartly sunny.10 mph52%30.07 "HgN/A
3:50 PM70 °FScattered clouds.12 mph43%30.07 "HgN/A
3:20 PM68 °FScattered clouds.10 mph49%30.07 "HgN/A
2:50 PM68 °FPassing clouds.10 mph43%30.07 "HgN/A
2:20 PM66 °FScattered clouds.12 mph49%30.07 "HgN/A
1:50 PM64 °FScattered clouds.12 mph52%30.07 "HgN/A
1:20 PM68 °FPartly sunny.12 mph46%30.09 "HgN/A
12:50 PM64 °FPartly sunny.12 mph56%30.09 "HgN/A
12:20 PM66 °FPartly sunny.8 mph46%30.09 "HgN/A
11:50 AM66 °FPartly sunny.8 mph49%30.09 "HgN/A
11:20 AM66 °FPartly sunny.6 mph52%30.12 "HgN/A
10:50 AM64 °FSunny.5 mph60%30.12 "Hg10 mi
10:20 AM63 °FSunny.3 mph64%30.12 "Hg10 mi
9:50 AM61 °FSunny.3 mph68%30.12 "Hg10 mi
9:20 AM59 °FSunny.3 mph72%30.12 "Hg10 mi
8:50 AM57 °FSunny.3 mph72%30.12 "Hg10 mi
8:20 AM55 °FSunny.3 mph72%30.12 "Hg10 mi
Weather by CustomWeather, © 2015

See weather overviewHow to use our weather pages